Flag for Germany Weather past 2 weeks in Löhne, North Rhine-Westphalia, Germany

Now
39 °F

Rain. Mostly cloudy.


Feels Like: 35 °F
Forecast: 31 / 45 °F
Wind: 6 mph from South

Location: Bueckeburg

Current Time: Feb 27, 2015 at 8:09:51 AM

Latest Report: Feb 27, 2015 at 7:20 AM


Visibility: 4 mi

Pressure: 29.80 "Hg

Humidity: 93%

Dew point: 37 °F

Location of LöhneLocation

Historic Weather in Löhne — Graph

°F

Löhne temperature yesterday

Maximum temperature yesterday: 48 °F (at 2:20 PM)
Minimum temperature yesterday: 39 °F (at 2:20 AM)
Average temperature yesterday: 43 °F

Past Weeks' High & Low Weather Summary

 TemperatureHumidityPressure
High52 °F (Feb 14, 3:20 PM)100% (Feb 12, 7:20 AM)30.74 "Hg (Feb 12, 7:20 AM)
Low27 °F (Feb 13, 3:20 AM)53% (Feb 18, 4:20 PM)29.30 "Hg (Feb 21, 6:20 AM)
Average38 °F80%29.98 "Hg
* Reported Feb 12 6:20 AM — Feb 27 6:20 AM, Löhne, Weather by CustomWeather, © 2015

Note: Actual official high and low records may vary slightly from our data, if they occured in-between our weather recording intervals... More about our weather records

Advertising

Löhne weather history for previous 24 hours

 ConditionsComfort  
Time TempWeatherWind HumidityBarometerVisibility
6:20 AM
Fri, Feb 27
39 °FRain. Overcast.9 mph93%29.77 "Hg5 mi
5:20 AM41 °FLight rain. Overcast.10 mph87%29.77 "Hg6 mi
4:20 AM41 °FLight rain. Mostly cloudy.12 mph81%29.77 "HgN/A
3:20 AM41 °FLight rain. Overcast.12 mph81%29.77 "Hg6 mi
2:20 AM43 °FLight rain. Passing clouds.15 mph71%29.80 "Hg4 mi
1:20 AM45 °FLight rain. Passing clouds.10 mph66%29.80 "HgN/A
12:20 AM45 °FLight rain. Mostly cloudy.13 mph66%29.80 "HgN/A
11:20 PM
Thu, Feb 26
45 °FMostly cloudy.13 mph66%29.83 "HgN/A
10:20 PM45 °FOvercast.14 mph66%29.83 "HgN/A
9:20 PM45 °FOvercast.16 mph66%29.86 "HgN/A
8:20 PM45 °FPassing clouds.15 mph66%29.89 "HgN/A
7:20 PM45 °FPassing clouds.10 mph66%29.92 "HgN/A
6:20 PM45 °FPassing clouds.9 mph61%29.92 "HgN/A
5:20 PM46 °FScattered clouds.8 mph57%29.95 "HgN/A
4:20 PM48 °FPassing clouds.14 mph58%29.95 "HgN/A
3:20 PM46 °FScattered clouds.14 mph62%29.98 "HgN/A
2:20 PM48 °FScattered clouds.15 mph58%29.98 "HgN/A
1:20 PM46 °FScattered clouds.16 mph62%30.04 "HgN/A
12:20 PM45 °FPartly sunny.15 mph66%30.07 "HgN/A
11:20 AM45 °FScattered clouds.13 mph61%30.07 "HgN/A
10:20 AM43 °FPartly sunny.7 mph71%30.09 "HgN/A
9:20 AM41 °FOvercast.8 mph76%30.09 "HgN/A
8:20 AM39 °FOvercast.7 mph81%30.09 "HgN/A
Weather by CustomWeather, © 2015

See weather overviewHow to use our weather pages